,,,PA_Meas_PMT16A,,PR_Meas_QMR101_102,,RH_Meas_QMH101,,SR_Meas_QMS101,,TA_Meas_QMH101,,GenWind,,GenWind,
date,time,status,PA,status,PR,status,RH,status,SR,status,TA,status,DirAvg,status,SpdAvg,
2009-01-11, 00:00:04,VALID,1011.93,VALID,0,VALID,95.1313,VALID,0,VALID,22.4667,VALID,357,VALID,1.09961,
2009-01-11, 00:01:04,VALID,1011.92,VALID,0,VALID,95.1389,VALID,0,VALID,22.4667,VALID,298,VALID,0.835547,
2009-01-11, 00:02:04,VALID,1011.9,VALID,0,VALID,95.1542,VALID,0.105969,VALID,22.4844,VALID,267,VALID,0.352344,
2009-01-11, 00:03:04,VALID,1011.89,VALID,0,VALID,95.1542,VALID,0.105969,VALID,22.4861,VALID,319,VALID,0.975391,
2009-01-11, 00:04:04,VALID,1011.9,VALID,0,VALID,95.1923,VALID,0,VALID,22.4844,VALID,343,VALID,0.290625,
2009-01-11, 00:05:04,VALID,1011.88,VALID,0,VALID,95.1923,VALID,0,VALID,22.4861,VALID,321,VALID,0.0644531,
2009-01-11, 00:06:04,VALID,1011.88,VALID,0,VALID,95.2075,VALID,0,VALID,22.4844,VALID,307,VALID,0.265234,
2009-01-11, 00:07:04,VALID,1011.86,VALID,0,VALID,95.1999,VALID,0.105969,VALID,22.4861,VALID,80,VALID,0.164453,
2009-01-11, 00:08:04,VALID,1011.86,VALID,0,VALID,95.2228,VALID,0,VALID,22.5056,VALID,316,VALID,0.486328,
2009-01-11, 00:09:04,VALID,1011.87,VALID,0,VALID,95.2152,VALID,0,VALID,22.5056,VALID,355,VALID,0.591406,
2009-01-11, 00:10:04,VALID,1011.87,VALID,0,VALID,95.2228,VALID,0,VALID,22.4861,VALID,291,VALID,0.995313,
2009-01-11, 00:11:04,VALID,1011.88,VALID,0.5,VALID,95.2228,VALID,0.105969,VALID,22.5056,VALID,348,VALID,0.0707031,
2009-01-11, 00:12:04,VALID,1011.88,VALID,0,VALID,95.2075,VALID,0,VALID,22.5056,VALID,327,VALID,0.489844,
2009-01-11, 00:13:04,VALID,1011.86,VALID,0,VALID,95.2152,VALID,0,VALID,22.4844,VALID,323,VALID,0.865625,
2009-01-11, 00:14:04,VALID,1011.83,VALID,0,VALID,95.2075,VALID,0,VALID,22.4861,VALID,11,VALID,0.452734,
2009-01-11, 00:15:04,VALID,1011.82,VALID,0,VALID,95.2228,VALID,0,VALID,22.5056,VALID,345,VALID,0.391016,
2009-01-11, 00:16:04,VALID,1011.8,VALID,0,VALID,95.177,VALID,0,VALID,22.4861,VALID,3,VALID,1.2207,
2009-01-11, 00:17:04,VALID,1011.78,VALID,0,VALID,95.1923,VALID,0,VALID,22.4844,VALID,256,VALID,0.235938,
2009-01-11, 00:18:04,VALID,1011.77,VALID,0,VALID,95.1694,VALID,0,VALID,22.4861,VALID,259,VALID,0.0597656,
2009-01-11, 00:19:04,VALID,1011.76,VALID,0,VALID,95.1694,VALID,0,VALID,22.5056,VALID,331,VALID,1.14102,
2009-01-11, 00:20:04,VALID,1011.76,VALID,0,VALID,95.1313,VALID,0,VALID,22.4667,VALID,14,VALID,0.212891,
2009-01-11, 00:21:04,VALID,1011.76,VALID,0,VALID,95.1465,VALID,0,VALID,22.5056,VALID,337,VALID,0.558594,
2009-01-11, 00:22:04,VALID,1011.73,VALID,0,VALID,95.1465,VALID,0,VALID,22.5056,VALID,350,VALID,0,
2009-01-11, 00:23:04,VALID,1011.76,VALID,0,VALID,95.1389,VALID,0,VALID,22.4861,VALID,355,VALID,0.580469,
2009-01-11, 00:24:04,VALID,1011.72,VALID,0,VALID,95.1313,VALID,0,VALID,22.5056,VALID,11,VALID,0.903516,
2009-01-11, 00:25:04,VALID,1011.73,VALID,0,VALID,95.1465,VALID,0,VALID,22.5056,VALID,344,VALID,0.564062,
2009-01-11, 00:26:04,VALID,1011.73,VALID,0,VALID,95.1465,VALID,0,VALID,22.5251,VALID,296,VALID,0.498047,
2009-01-11, 00:27:04,VALID,1011.72,VALID,0,VALID,95.1618,VALID,0,VALID,22.5056,VALID,301,VALID,0.412109,
2009-01-11, 00:28:04,VALID,1011.77,VALID,0.5,VALID,95.1542,VALID,0,VALID,22.5056,VALID,301,VALID,0,
2009-01-11, 00:29:04,VALID,1011.73,VALID,0,VALID,95.1389,VALID,0,VALID,22.5056,VALID,308,VALID,0.0351563,
2009-01-11, 00:30:04,VALID,1011.73,VALID,0,VALID,95.1618,VALID,0,VALID,22.5056,VALID,300,VALID,0.355859,
2009-01-11, 00:31:04,VALID,1011.73,VALID,0,VALID,95.1465,VALID,0,VALID,22.465,VALID,294,VALID,0.416016,
2009-01-11, 00:32:04,VALID,1011.7,VALID,0,VALID,95.1618,VALID,0,VALID,22.4861,VALID,294,VALID,0.0605469,
2009-01-11, 00:33:04,VALID,1011.72,VALID,0,VALID,95.177,VALID,0,VALID,22.4861,VALID,313,VALID,1.08125,
2009-01-11, 00:34:04,VALID,1011.71,VALID,0,VALID,95.1542,VALID,0,VALID,22.4878,VALID,346,VALID,0.978125,
2009-01-11, 00:35:04,VALID,1011.71,VALID,0,VALID,95.1847,VALID,0,VALID,22.5056,VALID,290,VALID,0.3125,
2009-01-11, 00:36:04,VALID,1011.72,VALID,0,VALID,95.1542,VALID,0,VALID,22.4861,VALID,322,VALID,0.358984,
2009-01-11, 00:37:04,VALID,1011.74,VALID,0,VALID,95.1542,VALID,0,VALID,22.5056,VALID,295,VALID,0.775,
2009-01-11, 00:38:05,VALID,1011.71,VALID,0,VALID,95.1694,VALID,0,VALID,22.5056,VALID,300,VALID,0.340234,
2009-01-11, 00:39:05,VALID,1011.72,VALID,0,VALID,95.177,VALID,0,VALID,22.5056,VALID,286,VALID,0.191016,
2009-01-11, 00:40:05,VALID,1011.71,VALID,0,VALID,95.1542,VALID,0,VALID,22.5056,VALID,276,VALID,0.212891,
2009-01-11, 00:41:05,VALID,1011.7,VALID,0,VALID,95.1618,VALID,0,VALID,22.5056,VALID,246,VALID,0.122656,
2009-01-11, 00:42:05,VALID,1011.7,VALID,0,VALID,95.1465,VALID,0,VALID,22.4861,VALID,329,VALID,0.691406,
2009-01-11, 00:43:05,VALID,1011.66,VALID,0,VALID,95.1542,VALID,0,VALID,22.5056,VALID,210,VALID,0.273828,
2009-01-11, 00:44:05,VALID,1011.66,VALID,0,VALID,95.1465,VALID,0,VALID,22.5251,VALID,322,VALID,0.558203,
2009-01-11, 00:45:05,VALID,1011.66,VALID,0.5,VALID,95.1389,VALID,0.105969,VALID,22.5039,VALID,283,VALID,0.0703125,
2009-01-11, 00:46:05,VALID,1011.65,VALID,0,VALID,95.1389,VALID,0,VALID,22.5056,VALID,299,VALID,0.478516,
2009-01-11, 00:47:05,VALID,1011.61,VALID,0,VALID,95.1313,VALID,0,VALID,22.5056,VALID,295,VALID,0.230078,
2009-01-11, 00:48:05,VALID,1011.6,VALID,0,VALID,95.1389,VALID,0,VALID,22.5251,VALID,317,VALID,0.178516,
2009-01-11, 00:49:05,VALID,1011.63,VALID,0,VALID,95.1313,VALID,0,VALID,22.4861,VALID,314,VALID,0.503906,
2009-01-11, 00:50:05,VALID,1011.6,VALID,0,VALID,95.1389,VALID,0,VALID,22.5056,VALID,309,VALID,0.265234,
2009-01-11, 00:51:05,VALID,1011.58,VALID,0,VALID,95.1313,VALID,0,VALID,22.4861,VALID,331,VALID,0.642969,
2009-01-11, 00:52:05,VALID,1011.57,VALID,0,VALID,95.1542,VALID,0,VALID,22.5056,VALID,330,VALID,0,
2009-01-11, 00:53:05,VALID,1011.56,VALID,0,VALID,95.1694,VALID,0,VALID,22.5056,VALID,288,VALID,0.542578,
2009-01-11, 00:54:05,VALID,1011.53,VALID,0,VALID,95.1542,VALID,0,VALID,22.4861,VALID,285,VALID,0.243359,
2009-01-11, 00:55:05,VALID,1011.5,VALID,0.5,VALID,95.1694,VALID,0,VALID,22.5056,VALID,307,VALID,0.646875,
2009-01-11, 00:56:05,VALID,1011.52,VALID,0,VALID,95.1313,VALID,0,VALID,22.4667,VALID,331,VALID,0.322656,
2009-01-11, 00:57:05,VALID,1011.49,VALID,0,VALID,95.1618,VALID,0,VALID,22.5056,VALID,331,VALID,0.295312,
2009-01-11, 00:58:05,VALID,1011.48,VALID,0,VALID,95.1618,VALID,0,VALID,22.4861,VALID,323,VALID,0.0480469,
2009-01-11, 00:59:05,VALID,1011.45,VALID,0,VALID,95.1694,VALID,0,VALID,22.5251,VALID,323,VALID,0,
2009-01-11, 01:00:05,VALID,1011.45,VALID,0,VALID,95.1923,VALID,0,VALID,22.5056,VALID,323,VALID,0,
2009-01-11, 01:01:05,VALID,1011.41,VALID,0,VALID,95.1999,VALID,0,VALID,22.5056,VALID,323,VALID,0,
2009-01-11, 01:02:05,VALID,1011.4,VALID,0,VALID,95.2228,VALID,0,VALID,22.4861,VALID,323,VALID,0,
2009-01-11, 01:03:05,VALID,1011.34,VALID,0,VALID,95.2075,VALID,0,VALID,22.5056,VALID,323,VALID,0,
2009-01-11, 01:04:05,VALID,1011.34,VALID,0,VALID,95.2304,VALID,0,VALID,22.465,VALID,323,VALID,0,
2009-01-11, 01:05:05,VALID,1011.34,VALID,0,VALID,95.238,VALID,0,VALID,22.4861,VALID,323,VALID,0,
2009-01-11, 01:06:05,VALID,1011.34,VALID,0,VALID,95.2457,VALID,0,VALID,22.4667,VALID,323,VALID,0,
2009-01-11, 01:07:05,VALID,1011.31,VALID,0,VALID,95.238,VALID,0,VALID,22.4667,VALID,323,VALID,0,
2009-01-11, 01:08:05,VALID,1011.31,VALID,0,VALID,95.2457,VALID,0,VALID,22.4667,VALID,322,VALID,0,
2009-01-11, 01:09:05,VALID,1011.28,VALID,0.5,VALID,95.2838,VALID,0,VALID,22.4861,VALID,322,VALID,0,
2009-01-11, 01:10:05,VALID,1011.25,VALID,0,VALID,95.3067,VALID,0,VALID,22.4861,VALID,322,VALID,0.101953,
2009-01-11, 01:11:05,VALID,1011.25,VALID,0,VALID,95.3219,VALID,0,VALID,22.4861,VALID,322,VALID,0,
2009-01-11, 01:12:05,VALID,1011.21,VALID,0,VALID,95.3219,VALID,0,VALID,22.4472,VALID,322,VALID,0,
2009-01-11, 01:13:05,VALID,1011.19,VALID,0,VALID,95.3295,VALID,0,VALID,22.4455,VALID,322,VALID,0.0648438,
2009-01-11, 01:14:05,VALID,1011.17,VALID,0,VALID,95.3067,VALID,0,VALID,22.4472,VALID,325,VALID,0.237109,
2009-01-11, 01:15:05,VALID,1011.14,VALID,0,VALID,95.3295,VALID,0,VALID,22.4472,VALID,325,VALID,0,
2009-01-11, 01:16:05,VALID,1011.14,VALID,0,VALID,95.3677,VALID,0,VALID,22.4472,VALID,333,VALID,0.485938,
2009-01-11, 01:17:05,VALID,1011.1,VALID,0,VALID,95.3524,VALID,0,VALID,22.426,VALID,360,VALID,0.689844,
2009-01-11, 01:18:05,VALID,1011.09,VALID,0,VALID,95.3448,VALID,0,VALID,22.4277,VALID,345,VALID,0.252344,
2009-01-11, 01:19:05,VALID,1011.08,VALID,0,VALID,95.36,VALID,0,VALID,22.4277,VALID,345,VALID,0.174609,
2009-01-11, 01:20:05,VALID,1011.05,VALID,0,VALID,95.3829,VALID,0,VALID,22.4667,VALID,345,VALID,0,
2009-01-11, 01:21:05,VALID,1011.03,VALID,0,VALID,95.3905,VALID,0,VALID,22.4472,VALID,345,VALID,0.0078125,
2009-01-11, 01:22:05,VALID,1011.03,VALID,0,VALID,95.3753,VALID,0,VALID,22.4684,VALID,345,VALID,0,
2009-01-11, 01:23:05,VALID,1010.99,VALID,0,VALID,95.4134,VALID,0,VALID,22.4472,VALID,345,VALID,0,
2009-01-11, 01:24:05,VALID,1010.97,VALID,0,VALID,95.3905,VALID,0,VALID,22.4277,VALID,345,VALID,0,
2009-01-11, 01:25:05,VALID,1010.93,VALID,0,VALID,95.4058,VALID,0,VALID,22.4472,VALID,345,VALID,0.173828,
2009-01-11, 01:26:05,VALID,1010.92,VALID,0,VALID,95.4134,VALID,0,VALID,22.4082,VALID,38,VALID,0.367578,
2009-01-11, 01:27:05,VALID,1010.89,VALID,0,VALID,95.4211,VALID,0,VALID,22.4277,VALID,38,VALID,0.00585938,
2009-01-11, 01:28:05,VALID,1010.88,VALID,0,VALID,95.4134,VALID,0,VALID,22.4277,VALID,38,VALID,0,
2009-01-11, 01:29:05,VALID,1010.87,VALID,0.5,VALID,95.4287,VALID,0,VALID,22.4277,VALID,38,VALID,0,
2009-01-11, 01:30:05,VALID,1010.86,VALID,0,VALID,95.4592,VALID,0,VALID,22.4277,VALID,31,VALID,0.105859,
2009-01-11, 01:31:05,VALID,1010.82,VALID,0,VALID,95.4516,VALID,0,VALID,22.4277,VALID,31,VALID,0,
2009-01-11, 01:32:05,VALID,1010.8,VALID,0,VALID,95.4744,VALID,0,VALID,22.4277,VALID,31,VALID,0.00429688,
2009-01-11, 01:33:05,VALID,1010.77,VALID,0,VALID,95.4668,VALID,0,VALID,22.4277,VALID,31,VALID,0,
2009-01-11, 01:34:05,VALID,1010.77,VALID,0,VALID,95.4744,VALID,0,VALID,22.4277,VALID,31,VALID,0.286719,
2009-01-11, 01:35:05,VALID,1010.75,VALID,0,VALID,95.4973,VALID,0,VALID,22.4277,VALID,31,VALID,0.121094,
2009-01-11, 01:36:05,VALID,1010.74,VALID,0,VALID,95.5049,VALID,0,VALID,22.4082,VALID,31,VALID,0.0078125,
2009-01-11, 01:37:05,VALID,1010.7,VALID,0,VALID,95.5278,VALID,0,VALID,22.4099,VALID,30,VALID,0.0683594,
2009-01-11, 01:38:05,VALID,1010.69,VALID,0,VALID,95.5126,VALID,0,VALID,22.3887,VALID,30,VALID,0.0339844,
2009-01-11, 01:39:05,VALID,1010.7,VALID,0,VALID,95.5202,VALID,0,VALID,22.3887,VALID,30,VALID,0,
2009-01-11, 01:40:05,VALID,1010.66,VALID,0,VALID,95.5202,VALID,0,VALID,22.3693,VALID,30,VALID,0.183984,
2009-01-11, 01:41:05,VALID,1010.67,VALID,0,VALID,95.5659,VALID,0,VALID,22.3887,VALID,30,VALID,0,
2009-01-11, 01:42:05,VALID,1010.63,VALID,0,VALID,95.5431,VALID,0,VALID,22.3887,VALID,30,VALID,0,
2009-01-11, 01:43:05,VALID,1010.65,VALID,0,VALID,95.5812,VALID,0,VALID,22.4082,VALID,30,VALID,0,
2009-01-11, 01:44:05,VALID,1010.61,VALID,0,VALID,95.5812,VALID,0,VALID,22.3887,VALID,338,VALID,0.178516,
2009-01-11, 01:45:05,VALID,1010.6,VALID,0,VALID,95.5888,VALID,0,VALID,22.3887,VALID,307,VALID,0.167578,
2009-01-11, 01:46:05,VALID,1010.6,VALID,0,VALID,95.5964,VALID,0,VALID,22.3887,VALID,307,VALID,0.185547,
2009-01-11, 01:47:05,VALID,1010.57,VALID,0,VALID,95.6041,VALID,0,VALID,22.3887,VALID,307,VALID,0.386328,
2009-01-11, 01:48:05,VALID,1010.57,VALID,0,VALID,95.6041,VALID,0,VALID,22.3887,VALID,307,VALID,0.157422,
2009-01-11, 01:49:05,VALID,1010.55,VALID,0,VALID,95.6117,VALID,0,VALID,22.3693,VALID,307,VALID,0,
2009-01-11, 01:50:05,VALID,1010.53,VALID,0,VALID,95.6269,VALID,0,VALID,22.4082,VALID,307,VALID,0,
2009-01-11, 01:51:05,VALID,1010.52,VALID,0,VALID,95.6269,VALID,0,VALID,22.4099,VALID,307,VALID,0,
2009-01-11, 01:52:05,VALID,1010.5,VALID,0,VALID,95.6422,VALID,0,VALID,22.3887,VALID,307,VALID,0,
2009-01-11, 01:53:05,VALID,1010.49,VALID,0,VALID,95.6574,VALID,0,VALID,22.4082,VALID,307,VALID,0.101172,
2009-01-11, 01:54:05,VALID,1010.48,VALID,0,VALID,95.6574,VALID,0,VALID,22.3887,VALID,307,VALID,0.0960938,
2009-01-11, 01:55:05,VALID,1010.46,VALID,0.5,VALID,95.6651,VALID,0,VALID,22.3887,VALID,307,VALID,0,
2009-01-11, 01:56:05,VALID,1010.45,VALID,0,VALID,95.6574,VALID,0,VALID,22.4082,VALID,307,VALID,0,
2009-01-11, 01:57:05,VALID,1010.42,VALID,0,VALID,95.6498,VALID,0,VALID,22.4099,VALID,307,VALID,0,
2009-01-11, 01:58:05,VALID,1010.4,VALID,0,VALID,95.6727,VALID,0,VALID,22.371,VALID,307,VALID,0,
2009-01-11, 01:59:05,VALID,1010.41,VALID,0,VALID,95.688,VALID,0,VALID,22.3693,VALID,307,VALID,0.003125,
2009-01-11, 02:00:05,VALID,1010.36,VALID,0,VALID,95.688,VALID,0,VALID,22.371,VALID,307,VALID,0.00429688,
2009-01-11, 02:01:05,VALID,1010.34,VALID,0,VALID,95.688,VALID,0,VALID,22.3498,VALID,307,VALID,0,
2009-01-11, 02:02:05,VALID,1010.35,VALID,0,VALID,95.7032,VALID,0,VALID,22.3498,VALID,307,VALID,0,
2009-01-11, 02:03:05,VALID,1010.33,VALID,0,VALID,95.7032,VALID,0,VALID,22.3498,VALID,307,VALID,0,
2009-01-11, 02:04:05,VALID,1010.33,VALID,0,VALID,95.6956,VALID,0,VALID,22.3498,VALID,307,VALID,0,
2009-01-11, 02:05:05,VALID,1010.34,VALID,0,VALID,95.7185,VALID,0,VALID,22.3498,VALID,307,VALID,0.288672,
2009-01-11, 02:06:05,VALID,1010.34,VALID,0,VALID,95.7337,VALID,0,VALID,22.3693,VALID,307,VALID,0.269922,
2009-01-11, 02:07:05,VALID,1010.33,VALID,0,VALID,95.7337,VALID,0,VALID,22.371,VALID,307,VALID,0.266016,
2009-01-11, 02:08:05,VALID,1010.36,VALID,0,VALID,95.7337,VALID,0,VALID,22.3693,VALID,307,VALID,0.147656,
2009-01-11, 02:09:05,VALID,1010.35,VALID,0,VALID,95.7261,VALID,0,VALID,22.371,VALID,307,VALID,0.284766,
2009-01-11, 02:10:05,VALID,1010.37,VALID,0,VALID,95.7413,VALID,0,VALID,22.3693,VALID,264,VALID,0.292578,
2009-01-11, 02:11:05,VALID,1010.38,VALID,0,VALID,95.7642,VALID,0,VALID,22.3693,VALID,284,VALID,0.271094,
2009-01-11, 02:12:05,VALID,1010.37,VALID,0,VALID,95.7718,VALID,0,VALID,22.3887,VALID,299,VALID,0,
2009-01-11, 02:13:05,VALID,1010.39,VALID,0,VALID,95.7718,VALID,0,VALID,22.3887,VALID,303,VALID,0,
2009-01-11, 02:14:05,VALID,1010.4,VALID,0,VALID,95.749,VALID,0,VALID,22.3887,VALID,277,VALID,0.389453,
2009-01-11, 02:15:05,VALID,1010.37,VALID,0,VALID,95.7642,VALID,0,VALID,22.3887,VALID,285,VALID,0.53125,
2009-01-11, 02:16:05,VALID,1010.4,VALID,0,VALID,95.7566,VALID,0,VALID,22.3887,VALID,280,VALID,0.356641,
2009-01-11, 02:17:05,VALID,1010.4,VALID,0,VALID,95.7795,VALID,0,VALID,22.3887,VALID,280,VALID,0.183594,
2009-01-11, 02:18:05,VALID,1010.41,VALID,0,VALID,95.7566,VALID,0,VALID,22.3887,VALID,287,VALID,0,
2009-01-11, 02:19:05,VALID,1010.41,VALID,0,VALID,95.7566,VALID,0,VALID,22.3693,VALID,288,VALID,0,
2009-01-11, 02:20:05,VALID,1010.42,VALID,0,VALID,95.7795,VALID,0,VALID,22.3887,VALID,290,VALID,0,
2009-01-11, 02:21:05,VALID,1010.42,VALID,0,VALID,95.7566,VALID,0,VALID,22.3887,VALID,287,VALID,0.651563,
2009-01-11, 02:22:05,VALID,1010.38,VALID,0,VALID,95.7871,VALID,0,VALID,22.3887,VALID,294,VALID,0.771875,
2009-01-11, 02:23:05,VALID,1010.39,VALID,0,VALID,95.7718,VALID,0,VALID,22.3887,VALID,291,VALID,0.289453,
2009-01-11, 02:24:05,VALID,1010.39,VALID,0,VALID,95.7871,VALID,0,VALID,22.3887,VALID,304,VALID,0.300391,
2009-01-11, 02:25:05,VALID,1010.36,VALID,0,VALID,95.7795,VALID,0,VALID,22.3693,VALID,289,VALID,0.819141,
2009-01-11, 02:26:05,VALID,1010.38,VALID,0,VALID,95.7718,VALID,0,VALID,22.3693,VALID,284,VALID,0.620703,
2009-01-11, 02:27:05,VALID,1010.34,VALID,0,VALID,95.7795,VALID,0,VALID,22.3498,VALID,295,VALID,0.444922,
2009-01-11, 02:28:05,VALID,1010.34,VALID,0,VALID,95.7718,VALID,0,VALID,22.3693,VALID,317,VALID,1.01484,
2009-01-11, 02:29:05,VALID,1010.34,VALID,0,VALID,95.7795,VALID,0,VALID,22.3498,VALID,280,VALID,0.153125,
2009-01-11, 02:30:05,VALID,1010.29,VALID,0,VALID,95.7795,VALID,0,VALID,22.3693,VALID,311,VALID,0.799219,
2009-01-11, 02:31:05,VALID,1010.29,VALID,0,VALID,95.7795,VALID,0,VALID,22.3887,VALID,318,VALID,0.274219,
2009-01-11, 02:32:05,VALID,1010.3,VALID,0,VALID,95.7795,VALID,0,VALID,22.3693,VALID,321,VALID,0.180078,
2009-01-11, 02:33:05,VALID,1010.27,VALID,0,VALID,95.7947,VALID,0,VALID,22.3887,VALID,321,VALID,0.00195313,
2009-01-11, 02:34:05,VALID,1010.25,VALID,0,VALID,95.7871,VALID,0,VALID,22.3887,VALID,321,VALID,0,
2009-01-11, 02:35:05,VALID,1010.27,VALID,0,VALID,95.7947,VALID,0.105969,VALID,22.3887,VALID,323,VALID,0.339453,
2009-01-11, 02:36:05,VALID,1010.24,VALID,0,VALID,95.7566,VALID,0,VALID,22.3887,VALID,313,VALID,0.334766,
2009-01-11, 02:37:05,VALID,1010.22,VALID,0,VALID,95.7795,VALID,0,VALID,22.3887,VALID,303,VALID,0.453906,
2009-01-11, 02:38:05,VALID,1010.2,VALID,0,VALID,95.7718,VALID,0,VALID,22.3693,VALID,315,VALID,0.400781,
2009-01-11, 02:39:05,VALID,1010.19,VALID,0,VALID,95.7871,VALID,0,VALID,22.3887,VALID,312,VALID,0.139062,
2009-01-11, 02:40:05,VALID,1010.16,VALID,0,VALID,95.7795,VALID,0,VALID,22.3693,VALID,307,VALID,0.457812,
2009-01-11, 02:41:05,VALID,1010.14,VALID,0,VALID,95.7718,VALID,0,VALID,22.3887,VALID,329,VALID,0.508203,
2009-01-11, 02:42:05,VALID,1010.15,VALID,0,VALID,95.7795,VALID,0,VALID,22.3887,VALID,301,VALID,0.449219,
2009-01-11, 02:43:05,VALID,1010.09,VALID,0,VALID,95.7947,VALID,0,VALID,22.4082,VALID,299,VALID,0.194922,
2009-01-11, 02:44:05,VALID,1010.07,VALID,0,VALID,95.7718,VALID,0,VALID,22.3693,VALID,283,VALID,1.02266,
2009-01-11, 02:45:05,VALID,1010.06,VALID,0,VALID,95.7795,VALID,0,VALID,22.3693,VALID,296,VALID,0.907812,
2009-01-11, 02:46:05,VALID,1010.07,VALID,0,VALID,95.7718,VALID,0,VALID,22.3887,VALID,297,VALID,0.870313,
2009-01-11, 02:47:05,VALID,1010.06,VALID,0,VALID,95.7718,VALID,0,VALID,22.3693,VALID,296,VALID,0.884375,
2009-01-11, 02:48:05,VALID,1010.03,VALID,0,VALID,95.7718,VALID,0,VALID,22.3693,VALID,308,VALID,0.650391,
2009-01-11, 02:49:05,VALID,1010.04,VALID,0,VALID,95.7566,VALID,0,VALID,22.3693,VALID,275,VALID,0.823047,
2009-01-11, 02:50:05,VALID,1010.01,VALID,0,VALID,95.749,VALID,0,VALID,22.3693,VALID,310,VALID,0.798437,
2009-01-11, 02:51:05,VALID,1010.01,VALID,0,VALID,95.7413,VALID,0,VALID,22.3693,VALID,305,VALID,0.692187,
2009-01-11, 02:52:05,VALID,1009.99,VALID,0,VALID,95.749,VALID,0,VALID,22.3481,VALID,283,VALID,0.505469,
2009-01-11, 02:53:05,VALID,1010,VALID,0,VALID,95.7337,VALID,0,VALID,22.3498,VALID,298,VALID,0.885156,
2009-01-11, 02:54:05,VALID,1009.96,VALID,0,VALID,95.7413,VALID,0,VALID,22.3498,VALID,297,VALID,0.249219,
2009-01-11, 02:55:05,VALID,1009.92,VALID,0,VALID,95.7261,VALID,0,VALID,22.3498,VALID,302,VALID,0.761328,
2009-01-11, 02:56:05,VALID,1009.96,VALID,0,VALID,95.7261,VALID,0,VALID,22.3498,VALID,281,VALID,0.379687,
2009-01-11, 02:57:05,VALID,1009.93,VALID,0,VALID,95.7185,VALID,0,VALID,22.3693,VALID,281,VALID,0.223047,
2009-01-11, 02:58:05,VALID,1009.96,VALID,0,VALID,95.7108,VALID,0,VALID,22.3303,VALID,285,VALID,0,
2009-01-11, 02:59:05,VALID,1009.9,VALID,0,VALID,95.7108,VALID,0,VALID,22.3498,VALID,19,VALID,0.866406,
2009-01-11, 03:00:05,VALID,1009.91,VALID,0,VALID,95.7108,VALID,0,VALID,22.3303,VALID,324,VALID,0.600391,
2009-01-11, 03:01:05,VALID,1009.89,VALID,0,VALID,95.7032,VALID,0,VALID,22.3498,VALID,336,VALID,0.523828,
2009-01-11, 03:02:05,VALID,1009.91,VALID,0,VALID,95.6803,VALID,0,VALID,22.3303,VALID,13,VALID,0.605859,
2009-01-11, 03:03:05,VALID,1009.92,VALID,0,VALID,95.6727,VALID,0,VALID,22.3303,VALID,323,VALID,0.126563,
2009-01-11, 03:04:05,VALID,1009.89,VALID,0,VALID,95.7032,VALID,0,VALID,22.3515,VALID,311,VALID,0.282031,
2009-01-11, 03:05:05,VALID,1009.9,VALID,0,VALID,95.6803,VALID,0,VALID,22.3515,VALID,310,VALID,0.227734,
2009-01-11, 03:06:05,VALID,1009.91,VALID,0,VALID,95.688,VALID,0,VALID,22.3303,VALID,267,VALID,0.230078,
2009-01-11, 03:07:05,VALID,1009.89,VALID,0,VALID,95.6956,VALID,0,VALID,22.3303,VALID,310,VALID,0.487891,
2009-01-11, 03:08:05,VALID,1009.89,VALID,0,VALID,95.688,VALID,0,VALID,22.3498,VALID,338,VALID,0.398438,
2009-01-11, 03:09:05,VALID,1009.89,VALID,0,VALID,95.7032,VALID,0,VALID,22.3498,VALID,325,VALID,0.296094,
2009-01-11, 03:10:05,VALID,1009.87,VALID,0,VALID,95.6956,VALID,0,VALID,22.3498,VALID,322,VALID,0.277344,
2009-01-11, 03:11:05,VALID,1009.89,VALID,0,VALID,95.688,VALID,0,VALID,22.3498,VALID,345,VALID,0.595312,
2009-01-11, 03:12:05,VALID,1009.87,VALID,0,VALID,95.6956,VALID,0,VALID,22.3108,VALID,326,VALID,0.437109,
2009-01-11, 03:13:05,VALID,1009.84,VALID,0,VALID,95.6651,VALID,0,VALID,22.3108,VALID,344,VALID,0.4375,
2009-01-11, 03:14:05,VALID,1009.84,VALID,0,VALID,95.688,VALID,0,VALID,22.2914,VALID,322,VALID,0.328516,
2009-01-11, 03:15:05,VALID,1009.82,VALID,0,VALID,95.6651,VALID,0,VALID,22.3108,VALID,300,VALID,0.606641,
2009-01-11, 03:16:05,VALID,1009.83,VALID,0,VALID,95.6651,VALID,0,VALID,22.3125,VALID,301,VALID,0.3875,
2009-01-11, 03:17:05,VALID,1009.82,VALID,0,VALID,95.6803,VALID,0,VALID,22.3125,VALID,3,VALID,0.415625,
2009-01-11, 03:18:05,VALID,1009.79,VALID,0,VALID,95.6574,VALID,0,VALID,22.3108,VALID,309,VALID,0.439844,
2009-01-11, 03:19:05,VALID,1009.76,VALID,0,VALID,95.6727,VALID,0,VALID,22.3108,VALID,305,VALID,0,
2009-01-11, 03:20:05,VALID,1009.75,VALID,0,VALID,95.6803,VALID,0,VALID,22.3108,VALID,348,VALID,0.432031,
2009-01-11, 03:21:05,VALID,1009.74,VALID,0,VALID,95.6803,VALID,0,VALID,22.332,VALID,341,VALID,0.433984,
2009-01-11, 03:22:04,VALID,1009.75,VALID,0,VALID,95.6803,VALID,0,VALID,22.3498,VALID,341,VALID,0.00195313,
2009-01-11, 03:23:04,VALID,1009.74,VALID,0,VALID,95.688,VALID,0,VALID,22.3303,VALID,357,VALID,0,
2009-01-11, 03:24:04,VALID,1009.73,VALID,0,VALID,95.6956,VALID,0,VALID,22.3108,VALID,282,VALID,0,
2009-01-11, 03:25:04,VALID,1009.71,VALID,0,VALID,95.7108,VALID,0,VALID,22.3303,VALID,299,VALID,0,
2009-01-11, 03:26:04,VALID,1009.69,VALID,0,VALID,95.6803,VALID,0,VALID,22.3108,VALID,298,VALID,0,
2009-01-11, 03:27:04,VALID,1009.67,VALID,0,VALID,95.688,VALID,0,VALID,22.3108,VALID,298,VALID,0,
2009-01-11, 03:28:04,VALID,1009.68,VALID,0,VALID,95.7261,VALID,0,VALID,22.332,VALID,296,VALID,0,
2009-01-11, 03:29:04,VALID,1009.65,VALID,0,VALID,95.7108,VALID,0,VALID,22.3108,VALID,321,VALID,0.308203,
2009-01-11, 03:30:04,VALID,1009.66,VALID,0,VALID,95.6956,VALID,0,VALID,22.2702,VALID,9,VALID,0.546094,
2009-01-11, 03:31:04,VALID,1009.66,VALID,0,VALID,95.7185,VALID,0,VALID,22.332,VALID,359,VALID,0.405859,
2009-01-11, 03:32:04,VALID,1009.65,VALID,0,VALID,95.7185,VALID,0,VALID,22.3303,VALID,321,VALID,0.392969,
2009-01-11, 03:33:04,VALID,1009.62,VALID,0,VALID,95.7108,VALID,0,VALID,22.3303,VALID,335,VALID,0.249219,
2009-01-11, 03:34:04,VALID,1009.62,VALID,0,VALID,95.7032,VALID,0,VALID,22.3303,VALID,337,VALID,0.657031,
2009-01-11, 03:35:04,VALID,1009.59,VALID,0,VALID,95.7261,VALID,0,VALID,22.3303,VALID,48,VALID,0.616406,
2009-01-11, 03:36:04,VALID,1009.64,VALID,0,VALID,95.7261,VALID,0,VALID,22.3303,VALID,340,VALID,1.51953,
2009-01-11, 03:37:04,VALID,1009.62,VALID,0,VALID,95.7185,VALID,0,VALID,22.3498,VALID,338,VALID,0.563281,
2009-01-11, 03:38:04,VALID,1009.6,VALID,0,VALID,95.7185,VALID,0,VALID,22.3498,VALID,325,VALID,0.225391,
2009-01-11, 03:39:04,VALID,1009.58,VALID,0,VALID,95.688,VALID,0,VALID,22.4099,VALID,327,VALID,0.9875,
2009-01-11, 03:40:04,VALID,1009.58,VALID,0,VALID,95.7108,VALID,0,VALID,22.3693,VALID,339,VALID,0.0882813,
2009-01-11, 03:41:04,VALID,1009.6,VALID,0,VALID,95.6956,VALID,0,VALID,22.3887,VALID,342,VALID,0.969922,
2009-01-11, 03:42:04,VALID,1009.57,VALID,0,VALID,95.7108,VALID,0,VALID,22.3887,VALID,319,VALID,0.684766,
2009-01-11, 03:43:04,VALID,1009.58,VALID,0,VALID,95.6956,VALID,0,VALID,22.4082,VALID,302,VALID,0.86875,
2009-01-11, 03:44:04,VALID,1009.56,VALID,0,VALID,95.6803,VALID,0,VALID,22.4082,VALID,353,VALID,0.913281,
2009-01-11, 03:45:04,VALID,1009.56,VALID,0,VALID,95.688,VALID,0,VALID,22.4489,VALID,333,VALID,0.394922,
2009-01-11, 03:46:04,VALID,1009.55,VALID,0,VALID,95.6727,VALID,0,VALID,22.4277,VALID,305,VALID,0.626953,
2009-01-11, 03:47:04,VALID,1009.51,VALID,0,VALID,95.6803,VALID,0,VALID,22.4082,VALID,335,VALID,0.977344,